User: anonymous
Location: Vancouver
(49.2500°N, 123.1330°W)
Time: 02:10:05
(UTC-07:00)
Language:

BREEZE-M DEB (TANK) - Orbit

View from above orbital plane
View from above orbital plane
View from above satellite
View from above satellite

Ground track
Ground track

The orbit data is extracted from the following two-line orbital elements,

1 27821U 03024B   14242.88755248  .00004254  00000-0  45915-3 0  4682
2 27821 049.5708 100.1676 5014273 340.8127 029.9703 05.62907627222182
Epoch (UTC): 30 August 2014 21:18:04
Eccentricity: 0.5014273
inclination: 49.5708°
perigee height: 277 km
apogee height: 13664 km
right ascension of ascending node: 100.1676°
argument of perigee: 340.8127°
revolutions per day: 5.62907627
mean anomaly at epoch: 29.9703°
orbit number at epoch: 22218

The dashed part of the orbit path shows where the satellite is in the earth's shadow,  

DLR